�������l�o���
Date,Time,MP-1(��Sv/h),MP-2(��Sv/h),MP-3(��Sv/h),MP-4(��Sv/h),MP-5(��Sv/h),MP-6(��Sv/h),MP-7(��Sv/h),����,����(m/s),���J
2021/04/20,00:00,0.170,0.151,0.248,0.237,0.235,0.134,0.083,�쐼,4.6,��
2021/04/20,00:10,0.170,0.152,0.249,0.236,0.234,0.133,0.082,���쐼,5.9,��
2021/04/20,00:20,0.170,0.152,0.249,0.236,0.236,0.133,0.082,���쐼,7.0,��
2021/04/20,00:30,0.170,0.152,0.249,0.235,0.235,0.133,0.083,�쐼,6.6,��
2021/04/20,00:40,0.170,0.152,0.249,0.236,0.235,0.133,0.082,�쐼,4.5,��
2021/04/20,00:50,0.170,0.151,0.248,0.237,0.236,0.133,0.083,��쐼,3.3,��
2021/04/20,01:00,0.170,0.153,0.249,0.235,0.234,0.133,0.083,��쐼,4.5,��
2021/04/20,01:10,0.169,0.152,0.249,0.236,0.235,0.133,0.083,��쐼,4.5,��
2021/04/20,01:20,0.171,0.153,0.248,0.236,0.235,0.134,0.083,��쐼,4.7,��
2021/04/20,01:30,0.171,0.152,0.248,0.234,0.234,0.133,0.082,��,3.7,��
2021/04/20,01:40,0.170,0.151,0.250,0.235,0.236,0.133,0.083,��,4.8,��
2021/04/20,01:50,0.170,0.153,0.250,0.237,0.235,0.133,0.083,��,5.0,��
2021/04/20,02:00,0.170,0.152,0.248,0.236,0.235,0.133,0.083,��쐼,5.9,��
2021/04/20,02:10,0.169,0.152,0.249,0.235,0.235,0.133,0.083,��,4.7,��
2021/04/20,02:20,0.170,0.151,0.250,0.237,0.235,0.132,0.083,��쐼,4.9,��
2021/04/20,02:30,0.169,0.152,0.249,0.236,0.235,0.133,0.082,��,5.9,��
2021/04/20,02:40,0.169,0.152,0.248,0.235,0.235,0.133,0.083,��,6.0,��
2021/04/20,02:50,0.171,0.152,0.248,0.236,0.236,0.133,0.082,��,6.0,��
2021/04/20,03:00,0.170,0.153,0.249,0.236,0.235,0.134,0.083,��,6.6,��
2021/04/20,03:10,0.169,0.153,0.248,0.236,0.235,0.133,0.082,��쐼,6.7,��
2021/04/20,03:20,0.170,0.152,0.247,0.235,0.235,0.134,0.082,��쐼,5.7,��
2021/04/20,03:30,0.170,0.152,0.248,0.237,0.233,0.132,0.082,��쐼,4.6,��
2021/04/20,03:40,0.170,0.152,0.249,0.235,0.235,0.133,0.082,��쐼,4.3,��
2021/04/20,03:50,0.170,0.152,0.249,0.235,0.235,0.133,0.082,��쐼,3.3,��
2021/04/20,04:00,0.170,0.153,0.249,0.235,0.235,0.133,0.083,��쐼,3.5,��
2021/04/20,04:10,0.171,0.152,0.249,0.236,0.235,0.133,0.082,��쐼,2.8,��
2021/04/20,04:20,0.170,0.152,0.249,0.234,0.233,0.133,0.082,���쐼,1.5,��
2021/04/20,04:30,0.169,0.152,0.248,0.235,0.235,0.133,0.083,��,2.1,��
2021/04/20,04:40,0.170,0.151,0.249,0.236,0.234,0.133,0.083,��,2.3,��
2021/04/20,04:50,0.171,0.152,0.249,0.234,0.234,0.133,0.083,���k��,1.0,��
2021/04/20,05:00,0.169,0.152,0.249,0.236,0.236,0.133,0.083,-,CALM,��
2021/04/20,05:10,0.169,0.151,0.249,0.236,0.234,0.133,0.083,�쓌,1.8,��
2021/04/20,05:20,0.169,0.152,0.249,0.235,0.235,0.132,0.082,-,CALM,��
2021/04/20,05:30,0.169,0.152,0.249,0.234,0.234,0.133,0.082,��,3.8,��
2021/04/20,05:40,0.170,0.151,0.249,0.235,0.235,0.133,0.083,���쐼,5.5,��
2021/04/20,05:50,0.170,0.152,0.248,0.235,0.235,0.133,0.082,���쐼,5.8,��
2021/04/20,06:00,0.170,0.151,0.247,0.235,0.235,0.133,0.083,���쐼,5.5,��
2021/04/20,06:10,0.170,0.151,0.248,0.236,0.235,0.133,0.083,���쐼,5.9,��
2021/04/20,06:20,0.170,0.152,0.247,0.234,0.234,0.132,0.083,���쐼,6.0,��
2021/04/20,06:30,0.170,0.152,0.248,0.235,0.235,0.133,0.081,�쐼,7.3,��
2021/04/20,06:40,0.169,0.151,0.247,0.234,0.234,0.133,0.082,���쐼,6.9,��
2021/04/20,06:50,0.170,0.150,0.248,0.235,0.235,0.132,0.082,�쐼,5.7,��
2021/04/20,07:00,0.171,0.152,0.248,0.235,0.235,0.132,0.082,�쐼,5.1,��
2021/04/20,07:10,0.170,0.152,0.247,0.234,0.234,0.133,0.082,�쐼,4.7,��
2021/04/20,07:20,0.170,0.151,0.246,0.235,0.233,0.133,0.082,�쐼,3.9,��
2021/04/20,07:30,0.169,0.151,0.248,0.234,0.234,0.133,0.082,�쐼,3.7,��
2021/04/20,07:40,0.170,0.151,0.245,0.233,0.235,0.133,0.082,�쐼,3.3,��
2021/04/20,07:50,0.169,0.151,0.247,0.234,0.235,0.133,0.081,��쐼,2.9,��
2021/04/20,08:00,0.169,0.151,0.247,0.233,0.235,0.133,0.083,��,2.8,��
2021/04/20,08:10,0.169,0.151,0.246,0.236,0.234,0.133,0.082,��,3.4,��
2021/04/20,08:20,0.169,0.151,0.247,0.233,0.235,0.132,0.083,��쓌,3.6,��
2021/04/20,08:30,0.170,0.152,0.248,0.234,0.234,0.134,0.082,��쓌,3.8,��
2021/04/20,08:40,0.168,0.152,0.246,0.236,0.232,0.132,0.082,��쓌,5.5,��
2021/04/20,08:50,0.169,0.151,0.248,0.233,0.235,0.133,0.082,��쓌,6.9,��
2021/04/20,09:00,0.169,0.150,0.249,0.234,0.233,0.133,0.082,��쓌,6.0,��
2021/04/20,09:10,0.168,0.152,0.247,0.236,0.233,0.131,0.083,��쓌,5.5,��
2021/04/20,09:20,0.171,0.151,0.249,0.234,0.234,0.134,0.082,��,5.8,��
2021/04/20,09:30,0.169,0.152,0.250,0.235,0.232,0.132,0.083,��,5.7,��
2021/04/20,09:40,0.168,0.152,0.247,0.235,0.236,0.133,0.082,��,5.5,��
2021/04/20,09:50,0.170,0.151,0.246,0.234,0.233,0.134,0.082,��,3.6,��
2021/04/20,10:00,0.169,0.152,0.250,0.235,0.232,0.131,0.083,��,3.8,��
2021/04/20,10:10,0.168,0.153,0.249,0.236,0.232,0.132,0.082,��,4.1,��
2021/04/20,10:20,0.168,0.150,0.248,0.234,0.235,0.133,0.081,��,4.5,��
2021/04/20,10:30,0.170,0.150,0.247,0.234,0.236,0.133,0.082,��,5.1,��
2021/04/20,10:40,0.170,0.152,0.246,0.232,0.233,0.132,0.082,��쓌,1.7,��
2021/04/20,10:50,0.169,0.151,0.245,0.234,0.231,0.133,0.082,��쓌,3.1,��
2021/04/20,11:00,0.168,0.150,0.250,0.236,0.236,0.132,0.082,�쓌,3.0,��
2021/04/20,11:10,0.169,0.151,0.250,0.235,0.235,0.132,0.082,�쓌,4.5,��
2021/04/20,11:20,0.171,0.152,0.247,0.234,0.233,0.132,0.082,�쓌,4.7,��
2021/04/20,11:30,0.169,0.151,0.247,0.233,0.233,0.133,0.082,��쓌,5.6,��
2021/04/20,11:40,0.168,0.152,0.248,0.236,0.236,0.132,0.083,��쓌,5.6,��
2021/04/20,11:50,0.167,0.151,0.251,0.236,0.234,0.132,0.082,��,3.6,��
2021/04/20,12:00,0.170,0.151,0.248,0.234,0.233,0.133,0.082,��쓌,3.8,��
2021/04/20,12:10,0.170,0.150,0.247,0.232,0.232,0.134,0.081,��,2.8,��
2021/04/20,12:20,0.170,0.153,0.247,0.232,0.232,0.132,0.082,��,3.7,��
2021/04/20,12:30,0.168,0.152,0.246,0.234,0.232,0.133,0.081,��,5.9,��
2021/04/20,12:40,0.167,0.152,0.246,0.236,0.232,0.132,0.081,��,6.0,��
2021/04/20,12:50,0.168,0.151,0.247,0.236,0.234,0.133,0.082,��,10.6,��
2021/04/20,13:00,0.169,0.151,0.248,0.236,0.232,0.133,0.083,��,8.2,��
2021/04/20,13:10,0.170,0.152,0.248,0.235,0.233,0.132,0.081,��,7.7,��
2021/04/20,13:20,0.170,0.149,0.248,0.234,0.234,0.134,0.082,��,8.2,��
2021/04/20,13:30,0.168,0.151,0.248,0.235,0.234,0.134,0.082,���k��,10.6,��
2021/04/20,13:40,0.169,0.150,0.248,0.235,0.234,0.133,0.082,���k��,11.7,��
2021/04/20,13:50,0.169,0.151,0.251,0.234,0.234,0.133,0.082,���k��,8.8,��
2021/04/20,14:00,0.169,0.152,0.253,0.235,0.234,0.133,0.082,��,7.8,��
2021/04/20,14:10,0.170,0.153,0.251,0.233,0.234,0.134,0.082,��,7.1,��
2021/04/20,14:20,0.170,0.153,0.249,0.234,0.235,0.133,0.082,��,8.1,��
2021/04/20,14:30,0.169,0.152,0.248,0.234,0.234,0.134,0.083,��,10.3,��
2021/04/20,14:40,0.168,0.151,0.248,0.235,0.234,0.133,0.083,���k��,6.0,��
2021/04/20,14:50,0.168,0.151,0.247,0.234,0.233,0.133,0.082,���k��,8.8,��
2021/04/20,15:00,0.171,0.152,0.249,0.234,0.235,0.133,0.082,��,7.7,��
2021/04/20,15:10,0.172,0.152,0.253,0.236,0.234,0.133,0.082,��,6.4,��
2021/04/20,15:20,0.170,0.154,0.252,0.237,0.234,0.133,0.083,��,7.1,��
2021/04/20,15:30,0.170,0.153,0.249,0.237,0.235,0.133,0.084,���k��,8.7,��
2021/04/20,15:40,0.169,0.152,0.251,0.234,0.233,0.133,0.083,���k��,9.2,��
2021/04/20,15:50,0.169,0.153,0.251,0.238,0.235,0.133,0.083,��,6.9,��
2021/04/20,16:00,0.171,0.153,0.249,0.238,0.234,0.133,0.083,���k��,4.4,��
2021/04/20,16:10,0.172,0.153,0.250,0.235,0.234,0.133,0.082,�k��,4.7,��
2021/04/20,16:20,0.169,0.153,0.251,0.238,0.234,0.134,0.082,�k��,2.7,��
2021/04/20,16:30,0.170,0.153,0.251,0.237,0.234,0.134,0.082,���k��,2.4,��
2021/04/20,16:40,0.173,0.152,0.252,0.235,0.233,0.133,0.083,�k��,1.7,��
2021/04/20,16:50,0.171,0.154,0.252,0.239,0.233,0.134,0.082,�k�k��,1.5,��
2021/04/20,17:00,0.170,0.153,0.249,0.238,0.233,0.134,0.083,�k,1.7,��
2021/04/20,17:10,0.172,0.152,0.252,0.235,0.235,0.133,0.083,���k��,1.6,��
2021/04/20,17:20,0.171,0.154,0.252,0.239,0.237,0.132,0.082,���k��,2.0,��
2021/04/20,17:30,0.170,0.152,0.250,0.236,0.236,0.135,0.082,�k��,0.8,��
2021/04/20,17:40,0.172,0.154,0.251,0.238,0.235,0.133,0.082,��,2.2,��
2021/04/20,17:50,0.170,0.152,0.249,0.237,0.237,0.134,0.082,��,3.4,��
2021/04/20,18:00,0.171,0.152,0.252,0.237,0.236,0.133,0.082,���쐼,3.3,��
2021/04/20,18:10,0.171,0.153,0.249,0.237,0.237,0.133,0.082,���쐼,2.8,��
2021/04/20,18:20,0.171,0.153,0.253,0.236,0.237,0.133,0.082,���쐼,2.1,��
2021/04/20,18:30,0.171,0.153,0.251,0.237,0.236,0.133,0.083,��,2.6,��
2021/04/20,18:40,0.170,0.153,0.252,0.236,0.237,0.133,0.082,���쐼,1.0,��
2021/04/20,18:50,0.172,0.152,0.251,0.238,0.234,0.133,0.083,���k��,0.6,��
2021/04/20,19:00,0.171,0.153,0.253,0.237,0.237,0.134,0.083,���k��,1.0,��
2021/04/20,19:10,0.172,0.152,0.249,0.238,0.235,0.133,0.083,���쐼,1.6,��
2021/04/20,19:20,0.170,0.153,0.252,0.238,0.236,0.133,0.082,��,2.3,��
2021/04/20,19:30,0.172,0.154,0.250,0.237,0.234,0.133,0.083,���쐼,2.0,��
2021/04/20,19:40,0.170,0.152,0.251,0.237,0.236,0.133,0.083,���쐼,1.7,��
2021/04/20,19:50,0.171,0.154,0.251,0.237,0.235,0.133,0.083,�k��,1.3,��
2021/04/20,20:00,0.170,0.153,0.252,0.237,0.237,0.133,0.082,���쐼,2.4,��
2021/04/20,20:10,0.171,0.153,0.252,0.236,0.234,0.133,0.082,�k��,0.7,��
2021/04/20,20:20,0.171,0.153,0.250,0.238,0.236,0.133,0.082,��쐼,0.9,��
2021/04/20,20:30,0.170,0.153,0.251,0.237,0.234,0.133,0.083,���쐼,3.7,��
2021/04/20,20:40,0.170,0.153,0.250,0.237,0.237,0.133,0.083,���쐼,2.3,��
2021/04/20,20:50,0.171,0.152,0.251,0.237,0.234,0.133,0.082,��쐼,0.8,��
2021/04/20,21:00,0.170,0.153,0.251,0.238,0.237,0.133,0.083,��쐼,1.6,��
2021/04/20,21:10,0.172,0.151,0.252,0.237,0.233,0.133,0.082,�쐼,1.9,��
2021/04/20,21:20,0.171,0.154,0.250,0.237,0.236,0.133,0.083,���k��,1.5,��
2021/04/20,21:30,0.171,0.153,0.250,0.237,0.236,0.133,0.082,��,1.1,��
2021/04/20,21:40,0.172,0.152,0.251,0.237,0.237,0.133,0.083,���쐼,1.4,��
2021/04/20,21:50,0.170,0.153,0.251,0.238,0.234,0.133,0.083,-,CALM,��
2021/04/20,22:00,0.171,0.152,0.253,0.237,0.236,0.133,0.083,��,2.3,��
2021/04/20,22:10,0.171,0.152,0.252,0.238,0.235,0.133,0.082,���k��,1.7,��
2021/04/20,22:20,0.171,0.154,0.250,0.237,0.236,0.133,0.083,��,2.0,��
2021/04/20,22:30,0.170,0.153,0.252,0.238,0.236,0.134,0.083,-,CALM,��
2021/04/20,22:40,0.171,0.152,0.250,0.237,0.236,0.134,0.083,-,CALM,��
2021/04/20,22:50,0.170,0.152,0.251,0.239,0.236,0.133,0.083,��,0.8,��
2021/04/20,23:00,0.171,0.151,0.250,0.239,0.235,0.133,0.082,���k��,4.3,��
2021/04/20,23:10,0.171,0.153,0.250,0.237,0.236,0.133,0.083,���k��,2.3,��
2021/04/20,23:20,0.171,0.153,0.250,0.237,0.235,0.134,0.083,���k��,4.3,��
2021/04/20,23:30,0.171,0.152,0.251,0.237,0.238,0.134,0.082,���k��,4.5,��
2021/04/20,23:40,0.171,0.153,0.252,0.237,0.234,0.135,0.083,��,7.2,��
2021/04/20,23:50,0.172,0.153,0.250,0.238,0.236,0.135,0.082,���k��,7.7,��
